FWV9FL LFRB-LESO

Flight info

Callsign FWV9FL
Flight time 1h 5m
Altitude 33000
Route ROSPO DCT NOVAN DCT NENEM DCT BAGAS DCT SSN
Aircraft A320/M-SDE3FGHIRWY/LB1

Departure

Time 2026-05-09 00:06
Airport Brest Bretagne airport (LFRB)

Arrival

Time 2026-05-09 01:11
Airport San Sebastián Airport (LESO)
Time Latitude Longitude Altitude Speed Heading
2026-05-08 23:40 48.44642 -4.41478 332 ft 0 kts 161°
2026-05-08 23:55 48.44662 -4.41491 329 ft 4 kts 139°
2026-05-08 23:56 48.44677 -4.41522 329 ft 4 kts 101°
2026-05-08 23:56 48.44677 -4.41561 329 ft 4 kts 78°
2026-05-08 23:56 48.44670 -4.41599 329 ft 3 kts 71°
2026-05-08 23:56 48.44669 -4.41603 330 ft 0 kts 71°
2026-05-08 23:58 48.44670 -4.41602 330 ft 1 kts 64°
2026-05-08 23:59 48.44675 -4.41618 329 ft 4 kts 256°
2026-05-08 23:59 48.44652 -4.41683 329 ft 9 kts 247°
2026-05-08 23:59 48.44631 -4.41768 329 ft 8 kts 251°
2026-05-08 23:59 48.44614 -4.41842 328 ft 8 kts 251°
2026-05-09 00:00 48.44594 -4.41938 327 ft 9 kts 252°
2026-05-09 00:00 48.44575 -4.42022 331 ft 8 kts 251°
2026-05-09 00:00 48.44581 -4.42093 328 ft 6 kts 300°
2026-05-09 00:00 48.44612 -4.42125 330 ft 5 kts 340°
2026-05-09 00:01 48.44620 -4.42130 329 ft 0 kts 340°
2026-05-09 00:01 48.44632 -4.42135 328 ft 6 kts 341°
2026-05-09 00:01 48.44683 -4.42172 328 ft 10 kts 316°
2026-05-09 00:02 48.44680 -4.42326 320 ft 18 kts 250°
2026-05-09 00:02 48.44636 -4.42517 313 ft 20 kts 251°
2026-05-09 00:02 48.44588 -4.42727 305 ft 22 kts 251°
2026-05-09 00:02 48.44539 -4.42944 302 ft 22 kts 251°
2026-05-09 00:03 48.44490 -4.43160 299 ft 21 kts 251°
2026-05-09 00:03 48.44453 -4.43324 303 ft 14 kts 251°
2026-05-09 00:03 48.44422 -4.43462 301 ft 14 kts 251°
2026-05-09 00:03 48.44392 -4.43594 301 ft 13 kts 251°
2026-05-09 00:04 48.44369 -4.43723 301 ft 13 kts 272°
2026-05-09 00:04 48.44373 -4.43819 295 ft 6 kts 239°
2026-05-09 00:04 48.44340 -4.43802 299 ft 5 kts 109°
2026-05-09 00:04 48.44349 -4.43772 296 ft 2 kts 67°
2026-05-09 00:05 48.44350 -4.43769 297 ft 0 kts 68°
2026-05-09 00:05 48.44351 -4.43764 297 ft 8 kts 68°
2026-05-09 00:05 48.44453 -4.43330 304 ft 78 kts 72°
2026-05-09 00:05 48.44690 -4.42268 324 ft 132 kts 71°
2026-05-09 00:06 48.45034 -4.40788 580 ft 156 kts 70°
2026-05-09 00:06 48.45313 -4.39218 1247 ft 157 kts 90°
2026-05-09 00:06 48.44882 -4.37752 1866 ft 161 kts 139°
2026-05-09 00:06 48.43907 -4.36793 2313 ft 175 kts 137°
2026-05-09 00:07 48.42988 -4.35476 2597 ft 191 kts 131°
2026-05-09 00:07 48.42008 -4.33927 2895 ft 216 kts 132°
2026-05-09 00:07 48.40927 -4.32200 3391 ft 235 kts 133°
2026-05-09 00:07 48.39790 -4.30394 4165 ft 240 kts 133°
2026-05-09 00:08 48.38622 -4.28550 4964 ft 246 kts 134°
2026-05-09 00:08 48.37422 -4.26668 5749 ft 252 kts 134°
2026-05-09 00:08 48.36193 -4.24748 6534 ft 257 kts 134°
2026-05-09 00:08 48.34935 -4.22794 7327 ft 261 kts 134°
2026-05-09 00:09 48.33669 -4.20827 8159 ft 263 kts 134°
2026-05-09 00:09 48.32386 -4.18838 8962 ft 266 kts 135°
2026-05-09 00:09 48.31088 -4.16831 9756 ft 270 kts 135°
2026-05-09 00:09 48.29764 -4.14787 10325 ft 281 kts 135°
2026-05-09 00:10 48.28344 -4.12595 10527 ft 304 kts 134°
2026-05-09 00:10 48.26735 -4.10361 10735 ft 325 kts 142°
2026-05-09 00:10 48.24917 -4.08260 11257 ft 333 kts 142°
2026-05-09 00:10 48.23073 -4.06118 11896 ft 338 kts 142°
2026-05-09 00:11 48.21203 -4.03945 12540 ft 342 kts 142°
2026-05-09 00:11 48.19308 -4.01745 13195 ft 346 kts 142°
2026-05-09 00:11 48.17386 -3.99519 13846 ft 351 kts 142°
2026-05-09 00:11 48.15446 -3.97276 14436 ft 354 kts 142°
2026-05-09 00:12 48.13492 -3.95018 15075 ft 356 kts 143°
2026-05-09 00:12 48.11530 -3.92754 15697 ft 357 kts 143°
2026-05-09 00:12 48.09553 -3.90474 16297 ft 360 kts 143°
2026-05-09 00:12 48.07562 -3.88179 16878 ft 363 kts 143°
2026-05-09 00:13 48.05550 -3.85865 17447 ft 366 kts 143°
2026-05-09 00:13 48.03527 -3.83544 18011 ft 369 kts 143°
2026-05-09 00:13 48.01484 -3.81202 18524 ft 371 kts 143°
2026-05-09 00:13 47.99428 -3.78853 19016 ft 373 kts 145°
2026-05-09 00:14 47.97203 -3.76856 19474 ft 375 kts 155°
2026-05-09 00:14 47.94746 -3.75532 19929 ft 377 kts 166°
2026-05-09 00:14 47.92142 -3.74947 20368 ft 381 kts 177°
2026-05-09 00:14 47.89487 -3.74863 20807 ft 384 kts 178°
2026-05-09 00:15 47.86804 -3.74787 21250 ft 386 kts 178°
2026-05-09 00:15 47.84108 -3.74705 21693 ft 389 kts 178°
2026-05-09 00:15 47.81394 -3.74618 22130 ft 391 kts 178°
2026-05-09 00:15 47.78661 -3.74527 22558 ft 394 kts 178°
2026-05-09 00:16 47.75912 -3.74434 22985 ft 397 kts 178°
2026-05-09 00:16 47.73140 -3.74339 23403 ft 399 kts 178°
2026-05-09 00:16 47.70352 -3.74244 23771 ft 402 kts 178°
2026-05-09 00:16 47.67552 -3.74154 24126 ft 404 kts 178°
2026-05-09 00:17 47.64740 -3.74068 24483 ft 405 kts 178°
2026-05-09 00:17 47.61915 -3.73985 24840 ft 406 kts 178°
2026-05-09 00:17 47.59088 -3.73897 25189 ft 408 kts 178°
2026-05-09 00:17 47.56243 -3.73804 25533 ft 409 kts 177°
2026-05-09 00:18 47.53392 -3.73708 25882 ft 410 kts 177°
2026-05-09 00:18 47.50531 -3.73614 26248 ft 411 kts 176°
2026-05-09 00:18 47.47651 -3.73519 26596 ft 413 kts 176°
2026-05-09 00:18 47.45751 -3.73459 26822 ft 414 kts 176°
2026-05-09 00:19 47.41924 -3.73340 27261 ft 416 kts 176°
2026-05-09 00:19 47.39027 -3.73248 27579 ft 417 kts 176°
2026-05-09 00:19 47.36124 -3.73157 27891 ft 418 kts 176°
2026-05-09 00:19 47.34155 -3.73094 28096 ft 419 kts 176°
2026-05-09 00:20 47.31233 -3.72999 28426 ft 421 kts 176°
2026-05-09 00:20 47.28297 -3.72905 28691 ft 423 kts 176°
2026-05-09 00:20 47.25345 -3.72813 28962 ft 424 kts 176°
2026-05-09 00:20 47.22425 -3.72725 29236 ft 426 kts 176°
2026-05-09 00:21 47.19420 -3.72633 29520 ft 427 kts 176°
2026-05-09 00:21 47.16482 -3.72542 29807 ft 428 kts 176°
2026-05-09 00:21 47.13513 -3.72446 30173 ft 426 kts 176°
2026-05-09 00:21 47.10549 -3.72349 30512 ft 425 kts 176°
2026-05-09 00:22 47.07591 -3.72251 30784 ft 425 kts 176°
2026-05-09 00:22 47.04627 -3.72152 31072 ft 425 kts 176°
2026-05-09 00:22 47.01673 -3.72057 31365 ft 425 kts 176°
2026-05-09 00:22 46.98722 -3.71964 31666 ft 424 kts 176°
2026-05-09 00:23 46.95777 -3.71875 31966 ft 423 kts 176°
2026-05-09 00:23 46.92832 -3.71788 32266 ft 423 kts 176°
2026-05-09 00:23 46.89892 -3.71702 32551 ft 423 kts 177°
2026-05-09 00:23 46.86950 -3.71612 32829 ft 423 kts 177°
2026-05-09 00:24 46.84007 -3.71522 32941 ft 422 kts 177°
2026-05-09 00:24 46.78145 -3.71337 32950 ft 421 kts 177°
2026-05-09 00:25 46.72296 -3.71146 32943 ft 420 kts 177°
2026-05-09 00:25 46.66451 -3.70965 32942 ft 420 kts 177°
2026-05-09 00:26 46.60603 -3.70786 32942 ft 420 kts 178°
2026-05-09 00:26 46.54762 -3.70614 32937 ft 420 kts 178°
2026-05-09 00:27 46.48919 -3.70437 32932 ft 420 kts 178°
2026-05-09 00:27 46.43077 -3.70244 32928 ft 420 kts 178°
2026-05-09 00:28 46.37237 -3.70060 32926 ft 420 kts 178°
2026-05-09 00:28 46.31413 -3.69692 32925 ft 419 kts 171°
2026-05-09 00:29 46.25664 -3.68242 32923 ft 419 kts 171°
2026-05-09 00:29 46.19909 -3.66814 32921 ft 420 kts 171°
2026-05-09 00:30 46.14158 -3.65382 32921 ft 420 kts 171°
2026-05-09 00:30 46.08395 -3.63945 32920 ft 420 kts 171°
2026-05-09 00:31 46.02632 -3.62515 32917 ft 420 kts 171°
2026-05-09 00:31 45.96869 -3.61082 32919 ft 420 kts 171°
2026-05-09 00:32 45.91104 -3.59637 32920 ft 421 kts 171°
2026-05-09 00:32 45.85332 -3.58200 32925 ft 421 kts 172°
2026-05-09 00:33 45.79568 -3.56783 32927 ft 420 kts 172°
2026-05-09 00:33 45.73801 -3.55366 32927 ft 420 kts 172°
2026-05-09 00:34 45.68036 -3.53948 32930 ft 420 kts 173°
2026-05-09 00:34 45.62277 -3.52530 32931 ft 420 kts 172°
2026-05-09 00:35 45.56521 -3.51112 32938 ft 420 kts 173°
2026-05-09 00:35 45.50760 -3.49703 32915 ft 420 kts 173°
2026-05-09 00:36 45.45001 -3.48298 32920 ft 420 kts 173°
2026-05-09 00:36 45.39241 -3.46899 32923 ft 420 kts 173°
2026-05-09 00:37 45.33486 -3.45504 32928 ft 420 kts 173°
2026-05-09 00:37 45.27729 -3.44109 32926 ft 419 kts 173°
2026-05-09 00:38 45.21983 -3.42709 32924 ft 419 kts 173°
2026-05-09 00:38 45.16240 -3.41323 32923 ft 418 kts 174°
2026-05-09 00:39 45.10498 -3.39941 32914 ft 418 kts 174°
2026-05-09 00:39 45.04759 -3.38566 32915 ft 418 kts 174°
2026-05-09 00:40 44.99027 -3.37187 32915 ft 418 kts 174°
2026-05-09 00:40 44.93331 -3.35814 32915 ft 418 kts 174°
2026-05-09 00:41 44.84731 -3.33759 32915 ft 418 kts 174°
2026-05-09 00:41 44.78998 -3.32384 32921 ft 418 kts 174°
2026-05-09 00:42 44.73263 -3.31034 32918 ft 418 kts 174°
2026-05-09 00:42 44.67529 -3.29683 32922 ft 418 kts 174°
2026-05-09 00:43 44.61797 -3.28329 32926 ft 418 kts 174°
2026-05-09 00:43 44.56027 -3.26960 32905 ft 418 kts 174°
2026-05-09 00:44 44.50340 -3.25607 32917 ft 417 kts 174°
2026-05-09 00:44 44.44615 -3.24257 32918 ft 417 kts 174°
2026-05-09 00:45 44.38899 -3.22918 32915 ft 417 kts 174°
2026-05-09 00:45 44.33182 -3.21579 32898 ft 416 kts 174°
2026-05-09 00:46 44.27462 -3.20238 32905 ft 416 kts 174°
2026-05-09 00:46 44.21750 -3.18899 32906 ft 416 kts 174°
2026-05-09 00:47 44.16032 -3.17567 32894 ft 416 kts 174°
2026-05-09 00:47 44.10316 -3.16241 32896 ft 417 kts 174°
2026-05-09 00:48 44.04736 -3.13876 32902 ft 427 kts 158°
2026-05-09 00:48 43.99847 -3.09049 32900 ft 435 kts 146°
2026-05-09 00:49 43.95144 -3.03727 32891 ft 436 kts 147°
2026-05-09 00:49 43.90406 -2.98416 32901 ft 438 kts 147°
2026-05-09 00:50 43.85660 -2.93109 32901 ft 438 kts 147°
2026-05-09 00:50 43.80918 -2.87790 32902 ft 438 kts 147°
2026-05-09 00:51 43.76176 -2.82476 32896 ft 438 kts 147°
2026-05-09 00:51 43.73794 -2.79822 32699 ft 439 kts 147°
2026-05-09 00:51 43.71445 -2.77209 32288 ft 440 kts 147°
2026-05-09 00:52 43.69040 -2.74535 31175 ft 447 kts 146°
2026-05-09 00:52 43.66610 -2.71833 30304 ft 449 kts 146°
2026-05-09 00:52 43.64190 -2.69136 29675 ft 445 kts 146°
2026-05-09 00:52 43.61798 -2.66470 29001 ft 439 kts 146°
2026-05-09 00:53 43.59440 -2.63847 28396 ft 433 kts 147°
2026-05-09 00:53 43.57103 -2.61255 27788 ft 428 kts 147°
2026-05-09 00:53 43.54798 -2.58703 27186 ft 423 kts 147°
2026-05-09 00:53 43.52504 -2.56166 26588 ft 419 kts 147°
2026-05-09 00:54 43.50240 -2.53667 25998 ft 415 kts 147°
2026-05-09 00:54 43.47997 -2.51194 25421 ft 412 kts 147°
2026-05-09 00:54 43.45764 -2.48736 24846 ft 408 kts 147°
2026-05-09 00:54 43.43552 -2.46302 24276 ft 405 kts 147°
2026-05-09 00:55 43.41356 -2.43887 23722 ft 402 kts 147°
2026-05-09 00:55 43.39182 -2.41495 23137 ft 398 kts 148°
2026-05-09 00:55 43.37034 -2.39129 22613 ft 393 kts 148°
2026-05-09 00:55 43.34913 -2.36796 22140 ft 387 kts 148°
2026-05-09 00:56 43.32823 -2.34507 21670 ft 382 kts 148°
2026-05-09 00:56 43.30758 -2.32249 21224 ft 377 kts 148°
2026-05-09 00:56 43.28719 -2.30021 20786 ft 372 kts 148°
2026-05-09 00:56 43.26703 -2.27823 20329 ft 368 kts 148°
2026-05-09 00:57 43.24706 -2.25646 19902 ft 364 kts 147°
2026-05-09 00:57 43.22727 -2.23489 19456 ft 363 kts 147°
2026-05-09 00:57 43.20752 -2.21339 19006 ft 361 kts 147°
2026-05-09 00:57 43.18789 -2.19204 18557 ft 360 kts 147°
2026-05-09 00:58 43.16836 -2.17064 18072 ft 361 kts 144°
2026-05-09 00:58 43.15192 -2.14429 17574 ft 370 kts 125°
2026-05-09 00:58 43.14241 -2.11121 17076 ft 380 kts 105°
2026-05-09 00:58 43.14148 -2.07482 16540 ft 388 kts 84°
2026-05-09 00:59 43.14981 -2.03949 15932 ft 396 kts 63°
2026-05-09 00:59 43.16677 -2.00972 15332 ft 400 kts 43°
2026-05-09 00:59 43.18034 -1.99263 14910 ft 400 kts 42°
2026-05-09 00:59 43.20807 -1.95834 14102 ft 403 kts 42°
2026-05-09 01:00 43.22193 -1.94127 13679 ft 404 kts 43°
2026-05-09 01:00 43.24278 -1.91554 13037 ft 398 kts 43°
2026-05-09 01:00 43.26302 -1.89058 12364 ft 383 kts 41°
2026-05-09 01:00 43.28516 -1.87117 11742 ft 378 kts 21°
2026-05-09 01:01 43.31058 -1.86339 11138 ft 374 kts 359°
2026-05-09 01:01 43.33609 -1.86818 10529 ft 368 kts 338°
2026-05-09 01:01 43.35762 -1.88416 10312 ft 336 kts 318°
2026-05-09 01:01 43.37490 -1.90383 10186 ft 311 kts 316°
2026-05-09 01:02 43.39117 -1.92246 9934 ft 301 kts 315°
2026-05-09 01:02 43.40720 -1.94058 9723 ft 297 kts 319°
2026-05-09 01:02 43.42597 -1.95318 9259 ft 310 kts 344°
2026-05-09 01:02 43.44742 -1.95341 8755 ft 308 kts 12°
2026-05-09 01:03 43.46676 -1.94156 8131 ft 304 kts 38°
2026-05-09 01:03 43.48062 -1.92023 7491 ft 297 kts 62°
2026-05-09 01:03 43.49057 -1.89542 6816 ft 295 kts 64°
2026-05-09 01:03 43.50041 -1.87067 6176 ft 292 kts 65°
2026-05-09 01:04 43.51010 -1.84633 5706 ft 283 kts 65°
2026-05-09 01:04 43.51924 -1.82349 5572 ft 262 kts 66°
2026-05-09 01:04 43.52774 -1.80223 5446 ft 245 kts 66°
2026-05-09 01:04 43.53568 -1.78235 5334 ft 230 kts 66°
2026-05-09 01:05 43.54294 -1.76315 5239 ft 220 kts 77°
2026-05-09 01:05 43.54481 -1.74325 5167 ft 204 kts 104°
2026-05-09 01:05 43.53236 -1.71109 4595 ft 187 kts 135°
2026-05-09 01:06 43.52416 -1.69733 4313 ft 184 kts 135°
2026-05-09 01:06 43.51619 -1.68380 4051 ft 180 kts 135°
2026-05-09 01:06 43.50843 -1.67059 3800 ft 175 kts 135°
2026-05-09 01:06 43.50067 -1.65790 3548 ft 169 kts 142°
2026-05-09 01:07 43.49066 -1.65152 3317 ft 154 kts 175°
2026-05-09 01:07 43.48055 -1.65415 3122 ft 148 kts 203°
2026-05-09 01:07 43.47242 -1.66262 2908 ft 144 kts 212°
2026-05-09 01:07 43.46473 -1.67114 2698 ft 140 kts 212°
2026-05-09 01:08 43.45727 -1.67940 2499 ft 139 kts 212°
2026-05-09 01:08 43.44965 -1.68779 2301 ft 139 kts 213°
2026-05-09 01:08 43.44215 -1.69608 2071 ft 137 kts 213°
2026-05-09 01:08 43.43467 -1.70420 1869 ft 137 kts 214°
2026-05-09 01:09 43.42731 -1.71261 1696 ft 138 kts 216°
2026-05-09 01:09 43.41993 -1.72112 1496 ft 139 kts 216°
2026-05-09 01:09 43.41232 -1.72970 1304 ft 147 kts 220°
2026-05-09 01:09 43.40409 -1.73836 1099 ft 149 kts 219°
2026-05-09 01:10 43.39611 -1.74711 928 ft 148 kts 220°
2026-05-09 01:10 43.38801 -1.75607 737 ft 147 kts 219°
2026-05-09 01:10 43.38007 -1.76465 504 ft 147 kts 218°
2026-05-09 01:10 43.37208 -1.77349 323 ft 148 kts 219°
2026-05-09 01:11 43.36402 -1.78228 123 ft 148 kts 218°
2026-05-09 01:11 43.35631 -1.79086 18 ft 116 kts 218°
2026-05-09 01:11 43.35238 -1.79511 21 ft 29 kts 217°
2026-05-09 01:11 43.35102 -1.79674 19 ft 17 kts 240°
2026-05-09 01:12 43.35065 -1.79705 20 ft 4 kts 89°
2026-05-09 01:12 43.35103 -1.79661 19 ft 13 kts 39°
2026-05-09 01:12 43.35186 -1.79570 20 ft 16 kts 39°
2026-05-09 01:12 43.35274 -1.79472 20 ft 17 kts 39°
2026-05-09 01:13 43.35370 -1.79364 20 ft 18 kts 38°
2026-05-09 01:13 43.35469 -1.79259 19 ft 15 kts 38°
2026-05-09 01:13 43.35531 -1.79266 18 ft 6 kts 312°
2026-05-09 01:13 43.35570 -1.79293 17 ft 7 kts 353°
2026-05-09 01:14 43.35590 -1.79282 17 ft 1 kts 23°
2026-05-09 01:14 43.35595 -1.79277 19 ft 0 kts 38°
2026-05-09 01:14 43.35597 -1.79274 18 ft 0 kts 39°